{"data":{"norad_id":60100,"epoch":"2026-09-21T13:07:16.620960Z","epoch_age_seconds":86914,"freshness":"FRESH","line1":"1 60100U 24117K   26264.54672015  .00052704  00000+0  15731-2 0  9998","line2":"2 60100  53.1582 204.5094 0002971  66.5910 293.5404 15.34135716126915","mean_motion":15.34135716,"eccentricity":0.0002971,"inclination_deg":53.1582,"raan_deg":204.5094,"arg_perigee_deg":66.591,"mean_anomaly_deg":293.5404,"bstar":0.0015731,"rev_number":12691,"period_min":93.863925139202,"perigee_km":461.45621367057,"apogee_km":465.52150775701,"semimajor_km":6841.6258607138,"source":"CELESTRAK","updated_at":"2026-09-22T09:00:49.151435Z"}}